Weather History for Provo, UT

Change the Weather History Date:

Sunday, September 22, 2013

  Actual Average Record
Temperature  
Mean Temperature 62 °F -  
Max Temperature 71 °F 72 °F 85 °F (1982)
Min Temperature 53 °F 44 °F 32 °F (2004)
Degree Days  
Heating Degree Days 3    
Growing Degree Days 12 (Base 50)    
Moisture  
Dew Point 44 °F    
Average Humidity 53    
Maximum Humidity 67    
Minimum Humidity 29    
Precipitation  
Precipitation 0.00 in - - ()
Sea Level Pressure  
Sea Level Pressure 29.73 in    
Wind  
Wind Speed 6 mph (ESE)    
Max Wind Speed 21 mph    
Max Gust Speed 30 mph    
Visibility 12 miles    
Events      
Averages and records for this station are not official NWS values.
T = Trace of Precipitation, MM = Missing Value Source: NWS Daily Summary

Daily Weather History Graph

Daily Weather History Graph

Search for Another Location

Airport:

Trip Planner

Search our weather history database for the weather conditions in past years. The results will help you decide how hot, cold, wet, or windy it might be!

Date:

Astronomy

Sep. 22, 2013 Rise Set
Actual Time 7:14 AM MDT 7:23 PM MDT
Civil Twilight 6:47 AM MDT 7:50 PM MDT
Nautical Twilight 6:15 AM MDT 8:22 PM MDT
Astronomical Twilight 5:43 AM MDT 8:54 PM MDT
Moon 9:15 PM MDT (9/22) 10:39 AM MDT (9/22)
Length of Visible Light 13h 02m
Length of Day
12h 08m
Waning Gibbous, 88% of the Moon is Illuminated
Sep 22
Waning Gibbous
Sep 26
Last Quarter
Oct 4
New
Oct 11
First Quarter
Oct 18
Full

Hourly Weather History & Observations

Time (MDT) Temp. Dew Point Humidity Pressure Visibility Wind Dir Wind Speed Gust Speed Precip Events Conditions
12:15 AM 66.2 °F 44.6 °F 46% 29.69 in 10.0 mi South 10.4 mph - N/A   Partly Cloudy
12:35 AM 66.2 °F 44.6 °F 46% 29.69 in 10.0 mi South 8.1 mph - N/A   Clear
12:55 AM 66.2 °F 50.0 °F 56% 29.69 in 10.0 mi South 4.6 mph - N/A   Clear
1:15 AM 62.6 °F 46.4 °F 55% 29.69 in 10.0 mi East 5.8 mph - N/A   Clear
1:35 AM 62.6 °F 46.4 °F 55% 29.69 in 10.0 mi East 3.5 mph - N/A   Partly Cloudy
1:55 AM 62.6 °F 46.4 °F 55% 29.69 in 10.0 mi SE 5.8 mph - N/A   Mostly Cloudy
2:15 AM 62.6 °F 46.4 °F 55% 29.69 in 10.0 mi ESE 5.8 mph - N/A   Partly Cloudy
2:35 AM 62.6 °F 46.4 °F 55% 29.69 in 10.0 mi ESE 3.5 mph - N/A   Scattered Clouds
2:55 AM 62.6 °F 46.4 °F 55% 29.69 in 10.0 mi Calm Calm - N/A   Mostly Cloudy
3:15 AM 60.8 °F 46.4 °F 59% 29.69 in 10.0 mi ENE 3.5 mph - N/A   Overcast
3:35 AM 60.8 °F 46.4 °F 59% 29.68 in 10.0 mi NE 4.6 mph - N/A   Overcast
3:55 AM 62.6 °F 46.4 °F 55% 29.69 in 10.0 mi East 3.5 mph - N/A   Overcast
4:15 AM 62.6 °F 44.6 °F 52% 29.69 in 10.0 mi East 3.5 mph - N/A   Overcast
4:35 AM 62.6 °F 46.4 °F 55% 29.68 in 10.0 mi ENE 4.6 mph - N/A   Mostly Cloudy
4:55 AM 60.8 °F 46.4 °F 59% 29.68 in 10.0 mi ENE 5.8 mph - N/A   Scattered Clouds
5:15 AM 60.8 °F 46.4 °F 59% 29.67 in 10.0 mi NNE 4.6 mph - N/A   Scattered Clouds
5:35 AM 60.8 °F 46.4 °F 59% 29.67 in 10.0 mi NE 3.5 mph - N/A   Mostly Cloudy
5:55 AM 60.8 °F 44.6 °F 55% 29.66 in 10.0 mi Calm Calm - N/A   Overcast
6:15 AM 62.6 °F 44.6 °F 52% 29.66 in 10.0 mi SSE 3.5 mph - N/A   Overcast
6:35 AM 60.8 °F 48.2 °F 63% 29.66 in 10.0 mi ESE 5.8 mph - N/A   Mostly Cloudy
6:50 AM 59.0 °F 48.2 °F 67% 29.66 in 15.0 mi Calm Calm - N/A   Overcast
7:50 AM 60.8 °F 46.4 °F 59% 29.67 in 15.0 mi Calm Calm - N/A   Overcast
8:50 AM 62.6 °F 46.4 °F 55% 29.68 in 15.0 mi Variable 4.6 mph - N/A   Overcast
9:50 AM 62.6 °F 48.2 °F 59% 29.70 in 15.0 mi ENE 5.8 mph - N/A   Mostly Cloudy
10:50 AM 66.2 °F 37.4 °F 35% 29.71 in 15.0 mi South 5.8 mph - N/A   Overcast
11:55 AM 66.2 °F 39.2 °F 37% 29.72 in 15.0 mi ESE 11.5 mph - N/A   Mostly Cloudy
12:50 PM 64.4 °F 41.0 °F 42% 29.74 in 15.0 mi SE 17.3 mph - N/A   Mostly Cloudy
1:50 PM 69.8 °F 39.2 °F 33% 29.70 in 15.0 mi South 6.9 mph - N/A   Mostly Cloudy
2:49 PM 66.2 °F 37.4 °F 35% 29.70 in 15.0 mi South 8.1 mph - N/A   Mostly Cloudy
3:55 PM 71.6 °F 37.4 °F 29% 29.69 in 15.0 mi SSW 9.2 mph - N/A   Scattered Clouds
4:50 PM 69.8 °F 39.2 °F 33% 29.70 in 15.0 mi Variable 5.8 mph - N/A   Mostly Cloudy
5:50 PM 66.2 °F 39.2 °F 37% 29.73 in 15.0 mi NW 13.8 mph - N/A   Mostly Cloudy
6:50 PM 62.6 °F 42.8 °F 48% 29.76 in 15.0 mi SW 20.7 mph 29.9 mph N/A   Mostly Cloudy
8:50 PM 55.4 °F 41.0 °F 58% 29.82 in 15.0 mi South 10.4 mph - N/A   Scattered Clouds
8:55 PM 55.4 °F 41.0 °F 58% 29.82 in 10.0 mi South 9.2 mph - N/A   Partly Cloudy
9:15 PM 55.4 °F 41.0 °F 58% 29.83 in 10.0 mi South 9.2 mph - N/A   Clear
9:35 PM 55.4 °F 42.8 °F 63% 29.84 in 10.0 mi South 3.5 mph - N/A   Partly Cloudy
9:55 PM 55.4 °F 42.8 °F 63% 29.84 in 10.0 mi ENE 4.6 mph - N/A   Partly Cloudy
10:15 PM 53.6 °F 42.8 °F 67% 29.85 in 10.0 mi East 4.6 mph - N/A   Clear
10:35 PM 53.6 °F 42.8 °F 67% 29.87 in 10.0 mi North 5.8 mph - N/A   Scattered Clouds
10:55 PM 57.2 °F 41.0 °F 55% 29.88 in 10.0 mi NNW 10.4 mph - N/A   Overcast
11:15 PM 59.0 °F 41.0 °F 51% 29.89 in 10.0 mi NNW 6.9 mph - N/A   Overcast
11:35 PM 57.2 °F 41.0 °F 55% 29.89 in 10.0 mi North 3.5 mph - N/A   Overcast
11:55 PM 57.2 °F 42.8 °F 59% 29.90 in 10.0 mi NNW 11.5 mph - N/A   Overcast